Showing default

GLOBALSTAR M086, 38045

Orbit data source: Space-Track

GLOBALSTAR M086, 38045 is a payload satellite owned by Globalstar (US) in LEO that was launched on Wed, 28 Dec 2011 UTC via a SOYUZ-2-1A launch vehicle from the Tyuratam Missile And Space Complex (TTMTR). Payload-class satellites include a variety of spacecraft equipped with specific instruments for various scientific and technological missions. These include communications satellites like Starlink; space stations such as the ISS; scientific satellites like the Hubble; Earth observation satellites from companies like Planet Labs, Umbra, and HawkEye 360; GPS; miniature CubeSats for education and research; and military/defense satellites.

Loading next visibility...
Identifier
38045, 2011-080F
Orbit
LEO
Last TLE update
2 days ago
Origin
Manufacturer
Thales Alenia
Mission
Operational Commercial Communications
Bus & Motor
PRISMA?, LS-400 AOCS?
Mass
715 kg wet, ~500 kg dry
Launch date (UTC)
2011-12-28 (13 years ago)
Launch vehicle
SOYUZ-2-1A
Launch site
Tyuratam Missile And Space Complex (TTMTR)
Object type
Payload
Rocket body
Debris
Shape & HBR
Trap Cyl + 2 Pan, 12 m
Radar Cross Section
20.931 m², Large (>1 m²)

Expand to show TLE details & history

TLE from 2 days ago
0 GLOBALSTAR M086
1 38045U 11080F   25118.80351139 -.00000061  00000-0  23687-3 0  9994
2 38045  51.9873 150.2641 0000913 196.0698 335.7023 12.62270107617326
Epoch: 2025-04-28T19:17Z
Definitive object data (Epoch: 2025-04-28T19:17:03.384Z)
Latitude
6.44453°
Longitude
178.94752°
Altitude
1,413.018 km
Speed
7.156 km/s
True Right ascension
21h 40m 53s
True Declination
6° 24' 34"
Sunlit
Object was in daylight at TLE epoch
Visualization TLE readout
Latitude
-3.11165°
Longitude
-3.38249°
Altitude
1,415.379 km
Speed
7.153 km/s
Apparent Right ascension
08h 07m 59s
Apparent Declination
-21° 39' 56"
Sunlit
Object is in daylight
Visualization observer readout
Local Sidereal Time
17:49:55
Azimuth
291.573° WNW
Elevation
-55.51°
Doppler factor
1
Orbital elements
Apogee altitude
1,414.694 km
Perigee altitude
1,413.271 km
Semi-major axis
7,792.12 km
Eccentricity
0.0000913
Inclination
51.9873°
RAAN
150.2641°
Arg. of periapsis
196.0698°
True anomaly
335.69799°
Mean anomaly
335.7023°
Eccentric anomaly
335.70015°
Mean motion
3.15544 °/min
BSTAR
0.00023687
Orbital period
114.09 mins
Loading maneuver chart data...
Loading SW <> Apogee altitude chart data...
Loading historical data...
Loading historical data...
Loading historical data...
Loading historical data...
Loading historical data...
Loading historical data...
Loading historical data...

GLOBALSTAR M086 Visibility forecast

Observer location: undefined°, undefined°

Span
Click to sort rows by Start time (UTC) header in descending order
Start Az.
Max El. time (UTC)
Max El. Az.
Max El.
End time (UTC)
End Az.
17 mins2025-04-30 10:46:56.967Z308.66° NW2025-04-30 10:55:56.967Z55.682° ENE43.596°2025-04-30 11:03:56.967Z118.766° SE
13 mins2025-04-30 12:48:56.967Z288.95° WNW2025-04-30 12:54:56.967Z231.475° WSW30.984°2025-04-30 13:01:56.967Z172.007° S
16 mins2025-05-01 03:29:56.967Z204.075° SW2025-05-01 03:37:56.967Z132.402° SE38.336°2025-05-01 03:45:56.967Z59.483° ENE
15 mins2025-05-01 05:30:56.967Z256.765° W2025-05-01 05:37:56.967Z337.714° N40.537°2025-05-01 05:45:56.967Z50.454° ENE
14 mins2025-05-01 07:32:56.967Z298.293° NW2025-05-01 07:38:56.967Z355.199° N31.222°2025-05-01 07:46:56.967Z62.793° ENE
15 mins2025-05-01 09:33:56.967Z313.023° NW2025-05-01 09:40:56.967Z29.64° NE37.414°2025-05-01 09:48:56.967Z97.076° ESE
|